Location: Gammelsbach
(49.5261°N, 8.9630°E)
Time: 03:53:32
(UTC+00:00)

Cosmos 1733 Rocket - Pass Details

Date: 17 June 2025
Orbit: 597 x 622 km, 82.5° (Epoch: 12 July)

Event Time Altitude Azimuth Distance (km) Brightness Sun altitude
Rises 22:18:55 0° 344° (NNW) 2,895 8.4 -15.6°
Reaches altitude 10° 22:21:14 10° 338° (NNW) 1,981 7.0 -15.7°
Maximum altitude 22:25:21 42° 268° (W) 874 3.9 -15.9°
Enters shadow 22:27:51 21° 207° (SSW) 1,380 4.4 -16.0°
